Location: San Antonio
(29.4240°N, 98.4930°W)
Time: 16:25:53
(UTC-05:00)

BlueWalker 3 - Pass Details

Date: 19 June 2024
Orbit: 480 x 492 km, 53.2° (Epoch: 11 July)

Event Time Altitude Azimuth Distance (km) Brightness Sun altitude
Rises 05:39:44 0° 326° (NW) 2,534 5.5 -11.0°
Reaches altitude 10° 05:41:59 10° 334° (NNW) 1,654 4.7 -10.6°
Maximum altitude 05:45:31 40° 45° (NE) 715 3.4 -10.0°
Drops below altitude 10° 05:49:04 10° 117° (ESE) 1,653 5.0 -9.4°
Sets 05:51:18 0° 124° (SE) 2,532 5.8 -8.9°
